When you browse on this site, cookies collect data to enhance your experience and personalize the content and advertising you see.
Visit our Privacy Policy to learn more. By continuing to use the site, you agree to this use of cookies and data.
  • In Austria
  • List of Countries
  • For 7 days
  • Water Temperature
  • Weather Map
  • News
  • Weather Widgets
  • user-avatar
    Login

    Hourly Weather Vidin

    Today, 19 February, Wednesday

    Time Temperature Precipitation Wind Pressure Humidity
    00:00 +9°C° 0 mm 5 mps 763 mmHg 76%
    01:00 +8°C° 0 mm 4 mps 763 mmHg 76%
    02:00 +8°C° 0 mm 4 mps 763 mmHg 77%
    03:00 +8°C° 0 mm 4 mps 763 mmHg 77%
    04:00 +9°C° 0 mm 3 mps 763 mmHg 78%
    05:00 +9°C° 0 mm 3 mps 763 mmHg 79%
    06:00 +8°C° 0.4 mm 3 mps 763 mmHg 81%
    07:00 +8°C° 0.4 mm 3 mps 763 mmHg 83%
    08:00 +8°C° 0.4 mm 2 mps 763 mmHg 84%
    09:00 +8°C° 0.4 mm 2 mps 763 mmHg 85%
    10:00 +8°C° 0.4 mm 2 mps 762 mmHg 85%
    11:00 +8°C° 0.4 mm 2 mps 762 mmHg 85%
    12:00 +8°C° 0.2 mm 2 mps 762 mmHg 85%
    13:00 +8°C° 0.2 mm 2 mps 761 mmHg 85%
    14:00 +8°C° 0.2 mm 2 mps 761 mmHg 85%
    15:00 +8°C° 0.1 mm 2 mps 760 mmHg 86%
    16:00 +8°C° 0.1 mm 2 mps 760 mmHg 87%
    17:00 +8°C° 0.1 mm 2 mps 759 mmHg 89%
    18:00 +8°C° 0.2 mm 2 mps 759 mmHg 90%
    19:00 +9°C° 0.2 mm 1 mps 759 mmHg 91%
    20:00 +9°C° 0.2 mm 1 mps 759 mmHg 93%
    21:00 +8°C° 0.2 mm 1 mps 759 mmHg 93%
    22:00 +8°C° 0.2 mm 1 mps 759 mmHg 94%
    23:00 +8°C° 0.2 mm 1 mps 759 mmHg 94%

    Tomorrow, 20 February, Thursday

    Time Temperature Precipitation Wind Pressure Humidity
    00:00 +8°C° 0.2 mm 1 mps 759 mmHg 94%
    01:00 +7°C° 0.2 mm 2 mps 759 mmHg 94%
    02:00 +7°C° 0.2 mm 2 mps 759 mmHg 93%
    03:00 +7°C° 0.2 mm 2 mps 759 mmHg 93%
    04:00 +7°C° 0.2 mm 2 mps 759 mmHg 92%
    05:00 +7°C° 0.2 mm 2 mps 759 mmHg 91%
    06:00 +7°C° 0.1 mm 2 mps 759 mmHg 89%
    07:00 +7°C° 0.1 mm 2 mps 760 mmHg 86%
    08:00 +7°C° 0.1 mm 3 mps 760 mmHg 84%
    09:00 +7°C° 0 mm 3 mps 760 mmHg 78%
    10:00 +8°C° 0 mm 3 mps 760 mmHg 71%
    11:00 +9°C° 0 mm 3 mps 761 mmHg 65%
    12:00 +8°C° 0 mm 4 mps 761 mmHg 63%
    13:00 +8°C° 0 mm 4 mps 761 mmHg 61%
    14:00 +10°C° 0 mm 4 mps 760 mmHg 59%
    15:00 +9°C° 0 mm 5 mps 760 mmHg 57%
    16:00 +8°C° 0 mm 5 mps 760 mmHg 56%
    17:00 +8°C° 0 mm 5 mps 760 mmHg 54%
    18:00 +7°C° 0 mm 5 mps 761 mmHg 59%
    19:00 +7°C° 0 mm 4 mps 761 mmHg 63%
    20:00 +6°C° 0 mm 4 mps 762 mmHg 68%
    21:00 +5°C° 0 mm 4 mps 762 mmHg 68%
    22:00 +5°C° 0 mm 3 mps 762 mmHg 69%
    23:00 +5°C° 0 mm 3 mps 763 mmHg 70%

    Day after tomorrow, 21 February, Friday

    Time Temperature Precipitation Wind Pressure Humidity
    00:00 +6°C° 0 mm 2 mps 763 mmHg 71%
    01:00 +5°C° 0 mm 2 mps 763 mmHg 71%
    02:00 +5°C° 0 mm 2 mps 763 mmHg 72%
    03:00 +5°C° 0.1 mm 2 mps 763 mmHg 74%
    04:00 +4°C° 0.1 mm 2 mps 764 mmHg 75%
    05:00 +5°C° 0.1 mm 1 mps 764 mmHg 77%
    06:00 +3°C° 0 mm 2 mps 764 mmHg 77%
    07:00 +3°C° 0 mm 2 mps 764 mmHg 77%
    08:00 +3°C° 0 mm 2 mps 764 mmHg 77%
    15:00 +10°C° 0 mm 3 mps 764 mmHg 43%
    16:00 +10°C° 0 mm 4 mps 764 mmHg 42%
    17:00 +10°C° 0 mm 4 mps 764 mmHg 41%
    18:00 +8°C° 0 mm 5 mps 764 mmHg 44%
    19:00 +7°C° 0 mm 5 mps 765 mmHg 47%
    20:00 +5°C° 0 mm 6 mps 766 mmHg 51%
    21:00 +5°C° 0 mm 6 mps 766 mmHg 54%
    22:00 +5°C° 0 mm 6 mps 766 mmHg 57%
    23:00 +4°C° 0 mm 6 mps 766 mmHg 60%

    22 February, Saturday

    Time Temperature Precipitation Wind Pressure Humidity
    00:00 +4°C° 0 mm 7 mps 766 mmHg 58%
    01:00 +3°C° 0 mm 7 mps 766 mmHg 57%
    02:00 +2°C° 0 mm 8 mps 767 mmHg 55%
    03:00 +1°C° 0 mm 8 mps 766 mmHg 57%
    04:00 +2°C° 0 mm 7 mps 766 mmHg 59%
    05:00 +2°C° 0 mm 7 mps 766 mmHg 62%
    06:00 +2°C° 0 mm 7 mps 767 mmHg 62%
    07:00 +2°C° 0 mm 7 mps 767 mmHg 62%
    08:00 +2°C° 0 mm 7 mps 767 mmHg 62%
    09:00 +3°C° 0 mm 6 mps 768 mmHg 57%
    10:00 +4°C° 0 mm 6 mps 768 mmHg 51%
    11:00 +7°C° 0 mm 6 mps 769 mmHg 46%
    12:00 +8°C° 0 mm 5 mps 769 mmHg 44%
    13:00 +8°C° 0 mm 5 mps 769 mmHg 42%
    14:00 +10°C° 0 mm 4 mps 769 mmHg 39%
    15:00 +10°C° 0 mm 4 mps 769 mmHg 41%
    16:00 +9°C° 0 mm 5 mps 769 mmHg 43%
    17:00 +8°C° 0 mm 5 mps 769 mmHg 44%
    18:00 +7°C° 0 mm 4 mps 769 mmHg 49%
    19:00 +6°C° 0 mm 4 mps 770 mmHg 55%
    20:00 +5°C° 0 mm 4 mps 770 mmHg 60%
    21:00 +4°C° 0 mm 4 mps 770 mmHg 61%
    22:00 +4°C° 0 mm 3 mps 770 mmHg 62%
    23:00 +4°C° 0 mm 3 mps 770 mmHg 63%

    23 February, Sunday

    Time Temperature Precipitation Wind Pressure Humidity
    00:00 +3°C° 0 mm 3 mps 770 mmHg 63%
    01:00 +3°C° 0 mm 3 mps 770 mmHg 64%
    02:00 +3°C° 0 mm 3 mps 770 mmHg 65%
    03:00 +2°C° 0 mm 3 mps 769 mmHg 64%
    04:00 +2°C° 0 mm 3 mps 769 mmHg 64%
    05:00 +2°C° 0 mm 3 mps 768 mmHg 64%
    06:00 +2°C° 0 mm 3 mps 768 mmHg 62%
    07:00 +3°C° 0 mm 3 mps 768 mmHg 60%
    08:00 +3°C° 0 mm 4 mps 767 mmHg 58%
    09:00 +5°C° 0 mm 4 mps 767 mmHg 51%
    10:00 +7°C° 0 mm 4 mps 767 mmHg 44%
    11:00 +8°C° 0 mm 5 mps 766 mmHg 37%
    12:00 +10°C° 0 mm 5 mps 766 mmHg 34%
    13:00 +13°C° 0 mm 6 mps 765 mmHg 31%
    14:00 +14°C° 0 mm 6 mps 765 mmHg 28%
    15:00 +14°C° 0 mm 6 mps 764 mmHg 31%
    16:00 +13°C° 0 mm 6 mps 764 mmHg 33%
    17:00 +13°C° 0 mm 5 mps 763 mmHg 36%
    18:00 +12°C° 0 mm 5 mps 763 mmHg 37%
    19:00 +10°C° 0 mm 5 mps 764 mmHg 38%
    20:00 +10°C° 0 mm 5 mps 764 mmHg 39%
    21:00 +10°C° 0 mm 4 mps 763 mmHg 39%
    22:00 +10°C° 0 mm 4 mps 763 mmHg 39%
    23:00 +10°C° 0 mm 4 mps 763 mmHg 39%

    24 February, Monday

    Time Temperature Precipitation Wind Pressure Humidity
    00:00 +9°C° 0 mm 3 mps 762 mmHg 40%
    01:00 +9°C° 0 mm 3 mps 762 mmHg 41%
    02:00 +9°C° 0 mm 3 mps 761 mmHg 42%
    03:00 +8°C° 0 mm 3 mps 760 mmHg 42%
    04:00 +8°C° 0 mm 3 mps 759 mmHg 43%
    05:00 +8°C° 0 mm 3 mps 759 mmHg 43%
    06:00 +8°C° 0 mm 3 mps 758 mmHg 43%
    07:00 +8°C° 0 mm 3 mps 758 mmHg 42%
    08:00 +8°C° 0 mm 3 mps 757 mmHg 42%
    09:00 +10°C° 0 mm 6 mps 757 mmHg 39%
    10:00 +12°C° 0 mm 8 mps 758 mmHg 36%
    11:00 +14°C° 0 mm 10 mps 758 mmHg 34%
    12:00 +13°C° 0 mm 10 mps 758 mmHg 41%
    13:00 +12°C° 0 mm 11 mps 759 mmHg 48%
    14:00 +11°C° 0 mm 11 mps 760 mmHg 56%
    15:00 +9°C° 0 mm 11 mps 760 mmHg 49%
    16:00 +9°C° 0 mm 11 mps 761 mmHg 43%
    17:00 +9°C° 0 mm 10 mps 762 mmHg 37%
    18:00 +8°C° 0 mm 9 mps 763 mmHg 40%
    19:00 +8°C° 0 mm 7 mps 764 mmHg 43%
    20:00 +7°C° 0 mm 6 mps 765 mmHg 47%
    21:00 +5°C° 0 mm 6 mps 765 mmHg 48%
    22:00 +5°C° 0 mm 6 mps 766 mmHg 49%
    23:00 +4°C° 0 mm 6 mps 766 mmHg 51%
    Show more